Tracking 28790 objects as of 19-Apr-2024
HD Live streaming from Space Station
objects crossing your sky now

DELTA 1 DEB

Track DELTA 1 DEB now!
10-day predictions


NORAD ID: 10842
Int'l Code: 1976-077CN
Perigee: 1,208.7 km
Apogee: 1,660.5 km
Inclination: 102.1 °
Period: 114.4 minutes
Semi major axis: 7805 km
RCS: 0.1889 m2 (medium)
Launch date: July 29, 1976
Source: United States (US)
Launch site: AIR FORCE WESTERN TEST RANGE (AFWTR)

Note: This is SATELLITE DEBRIS
Your satellite tracking list
Your tracking list is empty




NASA's NSSDC Master Catalog

Two Line Element Set (TLE):
1 10842U 76077CN  24109.35178447  .00000182  00000-0  11402-2 0  9998
2 10842 102.1003 230.1834 0289396 123.3122 308.6414 12.58914624 55273
Source of the keplerian elements: AFSPC